FALCON HEAVY R/B, 44345

Orbit data source: Space-Track

FALCON HEAVY R/B, 44345 is space debris originally from a launch on Tue, 25 Jun 2019 UTC launched from the Air Force Eastern Test Range (AFETR). Debris objects in space refer to the collection of defunct objects orbiting the Earth. Examples of debris include non-operational satellites, rocket bodies, and fragments generated from explosions, collisions, or faulty payload assembly.

Loading next visibility...
FALCON HEAVY R/B details
Identifier
44345, 2019-036G
Orbit
Active
Last TLE update4 days ago
Origin
Flag of USSpaceX (US)
ManufacturerSpaceX
MissionSpacecraft
Bus & MotorF9ST2, Unknown motor
Mass~4,000 kg wet, ~4,000 kg dry
Launch date (UTC)
2019-06-25 (5 years ago)
Launch vehicleUnknown
Launch site
Air Force Eastern Test Range (AFETR)
Object type
Payload
Rocket body
Debris
Shape & HBRCyl, Unknown HBR
Radar Cross Section49.816 m², Large (>1 m²)

Expand to show TLE details & history

TLE from 4 days ago
0 FALCON HEAVY R/B
1 44345U 19036G   24343.37795042  .00000023  00000-0  00000-0 0  9997
2 44345  42.2264 123.9965 2152275 221.2500 120.3819  4.69269631 93555
Epoch: 2024-12-08T09:04Z
Definitive object data (Epoch: 2024-12-08T09:04:14.916Z)
Latitude0.00001°
Longitude-89.69172°
Altitude10,769.854 km
Speed4.477 km/s
True Right ascension08h 15m 56s
True Declination0° 00' 00"
Sunlit
Object was in daylight at TLE epoch
Visualization TLE readout
Latitude-41.29772°
Longitude-165.93192°
Altitude6,554.436 km
Speed5.936 km/s
Apparent Right ascension04h 58m 53s
Apparent Declination-49° 22' 19"
Sunlit
Object is in daylight
Visualization observer readout
Local Sidereal Time21:15:44
Azimuth124.325° SE
Elevation-44.771°
Doppler factor1
Orbital elements
Apogee altitude11,936.876 km
Perigee altitude5,449.375 km
Semi-major axis15,071.263 km
Eccentricity0.2152275
Inclination42.2264°
RAAN123.9965°
Arg. of periapsis221.25°
True anomaly138.78597°
Mean anomaly120.3819°
Eccentric anomaly129.84929°
Mean motion1.17306 °/min
BSTARUnknown
Orbital period306.89 mins
Loading maneuver chart data...
Loading historical data...
Loading historical data...
Loading historical data...
Loading historical data...
Loading historical data...
Loading historical data...
Loading historical data...

FALCON HEAVY R/B Visibility forecast

Observer location: undefined°, undefined

Span
Click to sort rows by Start time (UTC) header in descending order
Start Az.
Max El. time (UTC)
Max El. Az.
Max El.
End time (UTC)
End Az.
151 mins2024-12-12 09:50:38.852Z200.645° SSW2024-12-12 11:07:38.852Z127.752° SE41.979°2024-12-12 12:21:38.852Z64.184° ENE
133 mins2024-12-12 16:01:38.852Z274.646° WNW2024-12-12 17:29:38.852Z214.209° SW44.99°2024-12-12 18:14:38.852Z117.951° SE
10 mins2024-12-12 22:41:38.852Z292.156° WNW2024-12-12 22:51:38.852Z281.84° WNW15.126°2024-12-12 22:51:38.852Z281.84° WNW
|